Location: Saluda
(35.2377°N, 82.3468°W)
Time: 08:02:29
(UTC+00:00)

Vanguard 2 - Pass Details

Date: 07 October 2022
Orbit: 553 x 2933 km, 32.9° (Epoch: 04 December)

Event Time Altitude Azimuth Distance (km) Brightness Sun altitude
Rises 00:08:19 0° 282° (WNW) 6,291 14.1 -13.5°
Reaches altitude 10° 00:12:51 10° 274° (W) 5,495 13.3 -14.4°
Maximum altitude 00:27:03 33° 218° (SW) 4,130 11.5 -17.3°
Drops below altitude 10° 00:41:04 10° 162° (SSE) 5,367 11.6 -20.2°
Sets 00:45:30 0° 153° (SSE) 6,127 11.8 -21.1°
